Terug naar catalogus

STARLINK-37147

ActiefCommunicatieSSO
NORAD 68295·PAYLOAD·🇺🇸 United States

Gelanceerd Mar 20, 2026 vanaf Vandenberg Space Force Base

Loading…

Volgende Passages (komende 24 uur)

TLE

VersSource: CelesTrak SupGP

Epoch: Sep 15, 2026, 04:09 UTC

1 68295C 26057B   26258.17340278  .00000786  00000+0  24393-4 0  2588
2 68295  97.2855  23.6652 0000988  90.7999  84.1232 15.33444891    13

Volg STARLINK-37147 in realtime met AllMySat

Download on the App Store